Flag for Australia Weather past 2 weeks in Perth, Western Australia, Australia

Now
75 °F

Sunny.


Feels Like: 78 °F
Forecast: 60 / 74 °F
Wind: 14 mph from South

Location: Belmont Perth Airport


UV Index: 3 (Moderate)

Visibility: 10 mi


Pressure: 30.01 "Hg

Humidity: 44%

Dew point: 52 °F

Location of PerthLocation

Historic Weather in Perth

°F

Perth temperature yesterday

Maximum temperature yesterday: 82 °F (at 2:00 PM)
Minimum temperature yesterday: 55 °F (at 1:00 AM)
Average temperature yesterday: 69 °F

Past Weeks' High & Low Weather Summary

 TemperatureHumidityPressure
High95 °F (Apr 11, 3:00 PM)100% (Apr 6, 3:30 AM)30.21 "Hg (Apr 6, 3:30 AM)
Low46 °F (Apr 17, 5:30 AM)17% (Apr 9, 3:00 PM)29.74 "Hg (Apr 5, 1:30 PM)
Average72 °F56%29.99 "Hg
* Reported Apr 4 11:00 AM — Apr 19 11:30 AM, Perth, Weather by CustomWeather, © 2014

Note: Actual official high and low records may vary slightly from our data, if they occured in-between our weather recording intervals... More about our weather records

Advertising

Historic Weather Conditions — Data for Previous 24 hours

 ConditionsComfort  
Time TempWeatherWind HumidityBarometerVisibility
11:30 AM
Apr 19
75 °FSunny.14 mph44%30.01 "Hg10 mi
10:30 AM72 °FSunny.13 mph53%30.04 "Hg10 mi
10:00 AM68 °FSunny.14 mph60%30.04 "Hg10 mi
9:30 AM66 °FSunny.12 mph64%30.07 "Hg10 mi
9:00 AM64 °FSunny.10 mph68%30.07 "Hg10 mi
8:30 AM61 °FSunny.2 mph77%30.07 "Hg10 mi
8:00 AM59 °FSunny.6 mph82%30.04 "Hg10 mi
7:30 AM54 °FSunny.8 mph88%30.04 "Hg10 mi
7:00 AM50 °FSunny.6 mph100%30.04 "Hg10 mi
6:30 AM50 °FSunny.7 mph94%30.04 "Hg10 mi
6:00 AM50 °FSunny.7 mph100%30.04 "Hg10 mi
5:30 AM52 °FClear.7 mph94%30.04 "Hg10 mi
5:00 AM52 °FClear.8 mph94%30.04 "Hg10 mi
4:30 AM54 °FClear.6 mph94%30.07 "Hg10 mi
4:00 AM57 °FClear.8 mph88%30.04 "Hg10 mi
3:30 AM57 °FClear.8 mph88%30.04 "Hg10 mi
3:00 AM55 °FClear.9 mph88%30.04 "Hg10 mi
2:30 AM57 °FClear.9 mph88%30.04 "Hg10 mi
2:00 AM57 °FClear.7 mph88%30.04 "Hg10 mi
1:30 AM59 °FClear.7 mph82%30.04 "Hg10 mi
1:00 AM61 °FClear.8 mph83%30.04 "Hg10 mi
12:30 AM61 °FClear.10 mph83%30.04 "Hg10 mi
12:00 AM63 °FClear.14 mph77%30.04 "Hg10 mi
11:30 PM
Apr 18
63 °FClear.14 mph77%30.04 "Hg10 mi
11:00 PM64 °FClear.10 mph68%30.07 "Hg10 mi
10:30 PM64 °FClear.9 mph68%30.07 "Hg10 mi
10:00 PM66 °FClear.10 mph64%30.07 "Hg10 mi
9:00 PM68 °FClear.13 mph64%30.07 "Hg10 mi
8:30 PM68 °FClear.13 mph69%30.07 "Hg10 mi
8:00 PM70 °FClear.10 mph64%30.07 "Hg10 mi
7:30 PM70 °FClear.12 mph64%30.07 "Hg10 mi
7:00 PM72 °FClear.10 mph61%30.07 "Hg10 mi
6:30 PM72 °FClear.10 mph61%30.07 "Hg10 mi
6:00 PM72 °FClear.12 mph61%30.07 "Hg10 mi
5:30 PM73 °FClear.12 mph61%30.07 "Hg10 mi
5:00 PM73 °FClear.14 mph57%30.04 "Hg10 mi
4:30 PM77 °FSunny.15 mph44%30.04 "Hg10 mi
4:00 PM81 °FSunny.12 mph37%30.04 "Hg10 mi
3:30 PM82 °FSunny.7 mph28%30.04 "Hg10 mi
3:00 PM81 °FSunny.6 mph32%30.04 "Hg10 mi
2:30 PM82 °FSunny.7 mph30%30.04 "Hg10 mi
2:00 PM82 °FSunny.7 mph32%30.04 "Hg10 mi
1:30 PM81 °FSunny.7 mph34%30.07 "Hg10 mi
1:00 PM79 °FSunny.7 mph37%30.07 "Hg10 mi
12:30 PM77 °FSunny.9 mph39%30.09 "Hg10 mi
12:00 PM77 °FSunny.12 mph39%30.09 "Hg10 mi
Weather by CustomWeather, © 2014

See weather overview